Palm Springs, CA

3:42 AM PDT on April 26, 2017 (GMT -0700)
Palm Springs International

Weather History for KPSP - October, 2010

Change the Weather History Date:

Sunday, October 17, 2010

  Actual Average Record
Temperature  
Mean Temperature 76 °F 75 °F  
Max Temperature 86 °F 89 °F 105 °F (1958)
Min Temperature 66 °F 62 °F 39 °F (1946)
Degree Days  
Heating Degree Days 0 0  
Month to date heating degree days 0 0  
Since 1 July heating degree days 0 0  
Cooling Degree Days 11 10  
Month to date cooling degree days 270 222  
Year to date cooling degree days 3923 3948  
Growing Degree Days 25 (Base 50)    
Moisture  
Dew Point 56 °F    
Average Humidity 54    
Maximum Humidity 73    
Minimum Humidity 34    
Precipitation  
Precipitation 0.00 in 0.02 in 1.34 in (2005)
Month to date precipitation 0.01 0.20  
Year to date precipitation 5.46 4.09  
Since 1 July precipitation 0.12  
Snow  
Snow 0.00 in - - ()
Month to date snowfall 0.0  
Year to date snowfall 0.0  
Snow Depth 0.00 in    
Sea Level Pressure  
Sea Level Pressure 29.90 in    
Wind  
Wind Speed 6 mph (WNW)    
Max Wind Speed 20 mph    
Max Gust Speed 24 mph    
Visibility 10 miles    
Events      
T = Trace of Precipitation, MM = Missing Value Source: NWS Daily Summary

Daily Weather History Graph

Daily Weather History Graph

Search for Another Location

Airport or City:

Trip Planner

Search our weather history database for the weather conditions in past years. The results will help you decide how hot, cold, wet, or windy it might be!

Date:

Astronomy

Oct. 17, 2010 Rise Set
Actual Time 6:52 AM PDT 6:09 PM PDT
Civil Twilight 6:27 AM PDT 6:34 PM PDT
Nautical Twilight 5:58 AM PDT 7:03 PM PDT
Astronomical Twilight 5:29 AM PDT 7:32 PM PDT
Moon 3:18 PM PDT (10/17) 2:02 AM PDT (10/17)
Length of Visible Light 12h 07m
Length of Day
11h 16m
Waxing Gibbous, 76% of the Moon is Illuminated
Oct 17
Waxing Gibbous
Oct 22
Full
Oct 30
Last Quarter
Nov 5
New
Nov 13
First Quarter

Hourly Weather History & Observations

Time (PDT) Temp. Heat Index Dew Point Humidity Pressure Visibility Wind Dir Wind Speed Gust Speed Precip Events Conditions
12:53 AM 71.1 °F - 59.0 °F 66% 29.92 in 10.0 mi Calm Calm - N/A   Clear
1:53 AM 70.0 °F - 57.0 °F 63% 29.93 in 10.0 mi Calm Calm - N/A   Clear
2:53 AM 70.0 °F - 57.0 °F 63% 29.93 in 9.0 mi SE 4.6 mph - N/A   Clear
3:53 AM 69.1 °F - 57.0 °F 65% 29.92 in 9.0 mi Calm Calm - N/A   Clear
4:53 AM 69.1 °F - 57.0 °F 65% 29.92 in 10.0 mi Calm Calm - N/A   Clear
5:53 AM 68.0 °F - 57.9 °F 70% 29.93 in 10.0 mi Calm Calm - N/A   Clear
6:53 AM 66.0 °F - 57.0 °F 73% 29.93 in 9.0 mi South 4.6 mph - N/A   Scattered Clouds
7:53 AM 69.1 °F - 57.9 °F 68% 29.95 in 8.0 mi Calm Calm - N/A   Scattered Clouds
8:53 AM 72.0 °F - 57.0 °F 59% 29.96 in 9.0 mi SSE 3.5 mph - N/A   Mostly Cloudy
9:53 AM 77.0 °F - 57.0 °F 50% 29.96 in 10.0 mi West 3.5 mph - N/A   Mostly Cloudy
10:53 AM 80.1 °F 80.1 °F 55.0 °F 42% 29.95 in 10.0 mi Calm Calm - N/A   Mostly Cloudy
11:53 AM 84.0 °F 82.5 °F 53.1 °F 34% 29.94 in 10.0 mi Variable 3.5 mph - N/A   Mostly Cloudy
12:53 PM 84.0 °F 82.6 °F 54.0 °F 35% 29.91 in 10.0 mi NW 8.1 mph - N/A   Mostly Cloudy
1:53 PM 81.0 °F 81.0 °F 57.0 °F 44% 29.88 in 10.0 mi NW 12.7 mph - N/A   Mostly Cloudy
2:53 PM 80.1 °F 80.2 °F 55.9 °F 43% 29.86 in 10.0 mi NW 16.1 mph - N/A   Mostly Cloudy
3:53 PM 81.0 °F 80.7 °F 55.0 °F 41% 29.85 in 10.0 mi NW 12.7 mph - N/A   Mostly Cloudy
4:53 PM 78.1 °F - 55.0 °F 45% 29.83 in 10.0 mi NW 16.1 mph - N/A   Scattered Clouds
5:53 PM 75.0 °F - 55.9 °F 51% 29.83 in 10.0 mi NW 15.0 mph - N/A   Clear
6:53 PM 73.9 °F - 55.0 °F 52% 29.84 in 10.0 mi NW 11.5 mph - N/A   Scattered Clouds
7:53 PM 73.0 °F - 55.9 °F 55% 29.85 in 10.0 mi NW 12.7 mph 19.6 mph N/A   Clear
8:53 PM 73.0 °F - 55.0 °F 53% 29.86 in 10.0 mi WNW 5.8 mph - N/A   Clear
9:53 PM 72.0 °F - 55.0 °F 55% 29.87 in 10.0 mi West 5.8 mph - N/A   Clear
10:53 PM 70.0 °F - 55.9 °F 61% 29.87 in 10.0 mi Calm Calm - N/A   Clear
11:53 PM 69.1 °F - 55.9 °F 63% 29.86 in 10.0 mi WSW 3.5 mph - N/A   Clear